Location: Unspecified
(43.3830°N, 0.0000°E)
Time: 09:49:27
(UTC+00:00)

N. Korean satellite - Pass Details

Date: 27 November 2020
Orbit: 453 x 502 km, 97.2° (Epoch: 16 January)

Event Time Altitude Azimuth Distance (km) Brightness Sun altitude
Rises 05:55:10 0° 5° (N) 2,546 10.1 -13.1°
Reaches altitude 10° 05:57:16 10° 359° (N) 1,671 9.1 -12.7°
Maximum altitude 06:00:42 45° 287° (WNW) 676 6.8 -12.1°
Drops below altitude 10° 06:04:11 10° 213° (SSW) 1,683 9.1 -11.5°
Sets 06:06:18 0° 207° (SSW) 2,567 10.1 -11.2°
